Time,TemperatureF,DewpointF,PressureIn,WindDirection,WindDirectionDegrees,WindSpeedMPH,WindSpeedGustMPH,Humidity,HourlyPrecipIn,Conditions,Clouds,dailyrainin,SolarRadiationWatts/m^2,SoftwareType,DateUTC
2013-04-04 00:00:00,30.9,17.8,30.37,SE,137,1.0,1.0,58,0.00,,,0.00,0,Wunderground v.1.15,2013-04-04 04:00:00,
2013-04-04 00:02:00,30.9,17.8,30.37,SE,137,1.0,8.0,58,0.00,,,0.00,0,Wunderground v.1.15,2013-04-04 04:02:00,
2013-04-04 00:05:00,30.8,17.7,30.37,SE,136,1.0,8.0,58,0.00,,,0.00,0,Wunderground v.1.15,2013-04-04 04:05:00,
2013-04-04 00:07:00,30.7,17.7,30.37,SE,136,1.0,8.0,58,0.00,,,0.00,0,Wunderground v.1.15,2013-04-04 04:07:00,
2013-04-04 00:12:00,30.6,18.0,30.37,SSE,161,1.0,4.0,59,0.00,,,0.00,0,Wunderground v.1.15,2013-04-04 04:12:00,
2013-04-04 00:18:00,30.6,18.0,30.37,SSE,157,2.0,4.0,59,0.00,,,0.00,0,Wunderground v.1.15,2013-04-04 04:18:00,
2013-04-04 00:25:00,30.6,18.0,30.37,SSE,155,2.0,5.0,59,0.00,,,0.00,0,Wunderground v.1.15,2013-04-04 04:25:00,
2013-04-04 00:30:00,30.6,17.6,30.37,SSE,149,2.0,5.0,58,0.00,,,0.00,0,Wunderground v.1.15,2013-04-04 04:30:00,
2013-04-04 00:37:00,30.8,17.7,30.37,South,175,3.0,6.0,58,0.00,,,0.00,0,Wunderground v.1.15,2013-04-04 04:37:00,
2013-04-04 00:43:00,30.8,17.3,30.37,SSE,151,2.0,3.0,57,0.00,,,0.00,0,Wunderground v.1.15,2013-04-04 04:43:00,
2013-04-04 00:50:00,30.8,17.3,30.37,South,179,2.0,4.0,57,0.00,,,0.00,0,Wunderground v.1.15,2013-04-04 04:50:00,
2013-04-04 00:55:00,30.7,17.3,30.37,South,179,2.0,4.0,57,0.00,,,0.00,0,Wunderground v.1.15,2013-04-04 04:55:00,
2013-04-04 01:00:00,30.8,17.3,30.37,SSE,157,2.0,7.0,57,0.00,,,-99.99,0,WeatherLink 6.0.0,2013-04-04 05:00:00,
2013-04-04 01:01:00,30.7,17.3,30.37,SSE,153,2.0,5.0,57,0.00,,,0.00,0,Wunderground v.1.15,2013-04-04 05:01:00,
2013-04-04 01:06:00,30.7,17.3,30.36,SE,140,3.0,5.0,57,0.00,,,0.00,0,Wunderground v.1.15,2013-04-04 05:06:00,
2013-04-04 01:12:00,30.6,17.2,30.36,SSE,156,2.0,4.0,57,0.00,,,0.00,0,Wunderground v.1.15,2013-04-04 05:12:00,
2013-04-04 01:18:00,30.5,17.1,30.36,SSE,158,2.0,4.0,57,0.00,,,0.00,0,Wunderground v.1.15,2013-04-04 05:18:00,
2013-04-04 01:24:00,30.3,16.9,30.36,SSE,147,2.0,4.0,57,0.00,,,0.00,0,Wunderground v.1.15,2013-04-04 05:24:00,
2013-04-04 01:30:00,30.3,16.5,30.36,SSE,149,2.0,3.0,56,0.00,,,0.00,0,Wunderground v.1.15,2013-04-04 05:30:00,
2013-04-04 01:35:00,30.3,16.5,30.36,SSE,161,3.0,3.0,56,0.00,,,0.00,0,Wunderground v.1.15,2013-04-04 05:35:00,
2013-04-04 01:41:00,30.2,16.4,30.37,South,186,2.0,2.0,56,0.00,,,0.00,0,Wunderground v.1.15,2013-04-04 05:41:00,
2013-04-04 01:47:00,30.0,16.2,30.37,South,181,1.0,2.0,56,0.00,,,0.00,0,Wunderground v.1.15,2013-04-04 05:47:00,
2013-04-04 01:52:00,30.0,16.2,30.36,SE,138,1.0,2.0,56,0.00,,,0.00,0,Wunderground v.1.15,2013-04-04 05:52:00,
2013-04-04 01:58:00,30.0,15.8,30.36,South,175,2.0,4.0,55,0.00,,,0.00,0,Wunderground v.1.15,2013-04-04 05:58:00,
2013-04-04 02:00:00,30.1,16.3,30.36,South,180,2.0,7.0,56,0.00,,,-99.99,0,WeatherLink 6.0.0,2013-04-04 06:00:00,
2013-04-04 02:04:00,29.9,15.7,30.36,SSE,152,2.0,7.0,55,0.00,,,0.00,0,Wunderground v.1.15,2013-04-04 06:04:00,
2013-04-04 02:10:00,29.9,16.1,30.36,SSE,151,2.0,2.0,56,0.00,,,0.00,0,Wunderground v.1.15,2013-04-04 06:10:00,
2013-04-04 02:15:00,29.8,15.6,30.36,SSE,149,2.0,3.0,55,0.00,,,0.00,0,Wunderground v.1.15,2013-04-04 06:15:00,
2013-04-04 02:21:00,29.9,15.7,30.35,SSW,198,2.0,5.0,55,0.00,,,0.00,0,Wunderground v.1.15,2013-04-04 06:21:00,
2013-04-04 02:26:00,29.9,15.3,30.35,SE,146,2.0,5.0,54,0.00,,,0.00,0,Wunderground v.1.15,2013-04-04 06:26:00,
2013-04-04 02:30:00,29.9,15.3,30.35,South,180,2.0,6.0,54,0.00,,,-99.99,0,WeatherLink 6.0.0,2013-04-04 06:30:00,
2013-04-04 02:32:00,29.9,15.3,30.35,South,173,2.0,3.0,54,0.00,,,0.00,0,Wunderground v.1.15,2013-04-04 06:32:00,
2013-04-04 02:38:00,29.9,15.3,30.35,SSW,194,2.0,3.0,54,0.00,,,0.00,0,Wunderground v.1.15,2013-04-04 06:38:00,
2013-04-04 02:43:00,29.8,15.2,30.35,South,169,2.0,4.0,54,0.00,,,0.00,0,Wunderground v.1.15,2013-04-04 06:43:00,
2013-04-04 02:48:00,29.7,15.1,30.34,SSE,155,1.0,4.0,54,0.00,,,0.00,0,Wunderground v.1.15,2013-04-04 06:48:00,
2013-04-04 02:55:00,29.5,15.3,30.34,SSE,159,1.0,1.0,55,0.00,,,0.00,0,Wunderground v.1.15,2013-04-04 06:55:00,
2013-04-04 03:00:00,29.3,15.5,30.34,SSE,157,1.0,2.0,56,0.00,,,0.00,0,Wunderground v.1.15,2013-04-04 07:00:00,
2013-04-04 03:06:00,29.0,15.2,30.34,South,182,1.0,7.0,56,0.00,,,0.00,0,Wunderground v.1.15,2013-04-04 07:06:00,
2013-04-04 03:12:00,29.0,15.2,30.34,South,178,2.0,2.0,56,0.00,,,0.00,0,Wunderground v.1.15,2013-04-04 07:12:00,
2013-04-04 03:17:00,28.9,15.2,30.34,South,171,1.0,3.0,56,0.00,,,0.00,0,Wunderground v.1.15,2013-04-04 07:17:00,
2013-04-04 03:23:00,28.8,15.5,30.33,SSE,148,2.0,4.0,57,0.00,,,0.00,0,Wunderground v.1.15,2013-04-04 07:23:00,
2013-04-04 03:29:00,28.8,15.5,30.34,South,188,2.0,4.0,57,0.00,,,0.00,0,Wunderground v.1.15,2013-04-04 07:29:00,
2013-04-04 03:30:00,28.9,15.6,30.34,South,180,2.0,5.0,57,0.00,,,-99.99,0,WeatherLink 6.0.0,2013-04-04 07:30:00,
2013-04-04 03:34:00,28.8,15.5,30.33,South,175,2.0,3.0,57,0.00,,,0.00,0,Wunderground v.1.15,2013-04-04 07:34:00,
2013-04-04 03:40:00,28.8,15.1,30.33,South,188,2.0,2.0,56,0.00,,,0.00,0,Wunderground v.1.15,2013-04-04 07:40:00,
2013-04-04 03:45:00,28.8,15.1,30.33,SSE,150,2.0,4.0,56,0.00,,,0.00,0,Wunderground v.1.15,2013-04-04 07:45:00,
2013-04-04 03:52:00,28.9,15.2,30.33,SSE,152,3.0,4.0,56,0.00,,,0.00,0,Wunderground v.1.15,2013-04-04 07:52:00,
2013-04-04 03:57:00,28.8,15.1,30.33,South,182,3.0,4.0,56,0.00,,,0.00,0,Wunderground v.1.15,2013-04-04 07:57:00,
2013-04-04 04:00:00,28.8,15.1,30.33,SSE,157,2.0,7.0,56,0.00,,,-99.99,0,WeatherLink 6.0.0,2013-04-04 08:00:00,
2013-04-04 04:03:00,28.8,15.1,30.33,SSE,161,3.0,6.0,56,0.00,,,0.00,0,Wunderground v.1.15,2013-04-04 08:03:00,
2013-04-04 04:10:00,28.7,15.0,30.33,South,177,2.0,2.0,56,0.00,,,0.00,0,Wunderground v.1.15,2013-04-04 08:10:00,
2013-04-04 04:16:00,28.7,15.0,30.33,South,175,3.0,5.0,56,0.00,,,0.00,0,Wunderground v.1.15,2013-04-04 08:16:00,
2013-04-04 04:21:00,28.7,15.0,30.33,South,174,3.0,6.0,56,0.00,,,0.00,0,Wunderground v.1.15,2013-04-04 08:21:00,
2013-04-04 04:27:00,28.7,14.6,30.33,South,170,3.0,6.0,55,0.00,,,0.00,0,Wunderground v.1.15,2013-04-04 08:27:00,
2013-04-04 04:30:00,28.7,14.6,30.32,South,180,3.0,9.0,55,0.00,,,-99.99,0,WeatherLink 6.0.0,2013-04-04 08:30:00,
2013-04-04 04:32:00,28.8,14.6,30.32,SSW,196,4.0,6.0,55,0.00,,,0.00,0,Wunderground v.1.15,2013-04-04 08:32:00,
2013-04-04 04:38:00,28.8,14.6,30.32,South,188,4.0,6.0,55,0.00,,,0.00,0,Wunderground v.1.15,2013-04-04 08:38:00,
2013-04-04 04:44:00,28.8,14.6,30.33,SSW,203,5.0,9.0,55,0.00,,,0.00,0,Wunderground v.1.15,2013-04-04 08:44:00,
2013-04-04 04:50:00,28.7,14.6,30.33,South,177,4.0,4.0,55,0.00,,,0.00,0,Wunderground v.1.15,2013-04-04 08:50:00,
2013-04-04 04:56:00,28.7,14.6,30.33,South,190,4.0,7.0,55,0.00,,,0.00,0,Wunderground v.1.15,2013-04-04 08:56:00,
2013-04-04 05:00:00,28.7,14.6,30.33,South,180,4.0,11.0,55,0.00,,,-99.99,0,WeatherLink 6.0.0,2013-04-04 09:00:00,
2013-04-04 05:01:00,28.5,14.4,30.33,South,180,5.0,10.0,55,0.00,,,0.00,0,Wunderground v.1.15,2013-04-04 09:01:00,
2013-04-04 05:07:00,28.5,14.4,30.33,South,180,5.0,10.0,55,0.00,,,0.00,0,Wunderground v.1.15,2013-04-04 09:07:00,
2013-04-04 05:12:00,28.5,14.4,30.33,SSE,167,5.0,7.0,55,0.00,,,0.00,0,Wunderground v.1.15,2013-04-04 09:12:00,
2013-04-04 05:18:00,28.3,14.6,30.33,South,190,4.0,8.0,56,0.00,,,0.00,0,Wunderground v.1.15,2013-04-04 09:18:00,
2013-04-04 05:23:00,28.3,14.2,30.32,SSE,165,5.0,5.0,55,0.00,,,0.00,0,Wunderground v.1.15,2013-04-04 09:23:00,
2013-04-04 05:28:00,28.3,14.6,30.32,South,173,4.0,5.0,56,0.00,,,0.00,0,Wunderground v.1.15,2013-04-04 09:28:00,
2013-04-04 05:30:00,28.4,14.7,30.32,South,180,5.0,12.0,56,0.00,,,-99.99,0,WeatherLink 6.0.0,2013-04-04 09:30:00,
2013-04-04 05:34:00,28.3,14.6,30.32,SSW,205,5.0,9.0,56,0.00,,,0.00,0,Wunderground v.1.15,2013-04-04 09:34:00,
2013-04-04 05:40:00,28.3,14.6,30.31,SSW,194,5.0,5.0,56,0.00,,,0.00,0,Wunderground v.1.15,2013-04-04 09:40:00,
2013-04-04 05:45:00,28.3,14.6,30.31,South,171,5.0,8.0,56,0.00,,,0.00,0,Wunderground v.1.15,2013-04-04 09:45:00,
2013-04-04 05:51:00,28.3,14.6,30.31,South,185,5.0,5.0,56,0.00,,,0.00,0,Wunderground v.1.15,2013-04-04 09:51:00,
2013-04-04 05:56:00,28.2,14.5,30.31,SSW,196,5.0,9.0,56,0.00,,,0.00,0,Wunderground v.1.15,2013-04-04 09:56:00,
2013-04-04 06:00:00,28.3,14.6,30.31,South,180,5.0,11.0,56,0.00,,,-99.99,0,WeatherLink 6.0.0,2013-04-04 10:00:00,
2013-04-04 06:02:00,28.2,14.5,30.31,South,183,5.0,11.0,56,0.00,,,0.00,0,Wunderground v.1.15,2013-04-04 10:02:00,
2013-04-04 06:08:00,28.3,14.6,30.30,South,188,5.0,11.0,56,0.00,,,0.00,0,Wunderground v.1.15,2013-04-04 10:08:00,
2013-04-04 06:13:00,28.2,14.5,30.30,South,184,5.0,6.0,56,0.00,,,0.00,0,Wunderground v.1.15,2013-04-04 10:13:00,
2013-04-04 06:19:00,28.1,14.8,30.30,South,171,5.0,6.0,57,0.00,,,0.00,0,Wunderground v.1.15,2013-04-04 10:19:00,
2013-04-04 06:24:00,28.0,14.7,30.30,South,174,5.0,6.0,57,0.00,,,0.00,0,Wunderground v.1.15,2013-04-04 10:24:00,
2013-04-04 06:30:00,28.1,14.8,30.30,South,179,5.0,5.0,57,0.00,,,0.00,0,Wunderground v.1.15,2013-04-04 10:30:00,
2013-04-04 06:35:00,28.1,14.8,30.30,SSW,196,5.0,7.0,57,0.00,,,0.00,0,Wunderground v.1.15,2013-04-04 10:35:00,
2013-04-04 06:42:00,28.0,14.7,30.29,South,177,4.0,6.0,57,0.00,,,0.00,0,Wunderground v.1.15,2013-04-04 10:42:00,
2013-04-04 06:48:00,27.9,15.0,30.29,SW,217,4.0,6.0,58,0.00,,,0.00,0,Wunderground v.1.15,2013-04-04 10:48:00,
2013-04-04 06:53:00,27.8,14.9,30.29,South,180,4.0,7.0,58,0.00,,,0.00,0,Wunderground v.1.15,2013-04-04 10:53:00,
2013-04-04 06:58:00,27.7,14.8,30.29,SW,217,4.0,7.0,58,0.00,,,0.00,0,Wunderground v.1.15,2013-04-04 10:58:00,
2013-04-04 07:00:00,27.9,15.0,30.29,South,180,4.0,9.0,58,0.00,,,-99.99,0,WeatherLink 6.0.0,2013-04-04 11:00:00,
2013-04-04 07:05:00,27.6,14.7,30.29,South,186,3.0,11.0,58,0.00,,,0.00,0,Wunderground v.1.15,2013-04-04 11:05:00,
2013-04-04 07:10:00,27.6,14.7,30.29,South,174,3.0,5.0,58,0.00,,,0.00,5,Wunderground v.1.15,2013-04-04 11:10:00,
2013-04-04 07:16:00,27.6,15.1,30.29,South,184,3.0,5.0,59,0.00,,,0.00,9,Wunderground v.1.15,2013-04-04 11:16:00,
2013-04-04 07:22:00,27.5,15.0,30.28,South,178,3.0,6.0,59,0.00,,,0.00,12,Wunderground v.1.15,2013-04-04 11:22:00,
2013-04-04 07:27:00,27.6,15.1,30.28,South,191,3.0,6.0,59,0.00,,,0.00,19,Wunderground v.1.15,2013-04-04 11:27:00,
2013-04-04 07:30:00,27.5,15.0,30.28,South,180,3.0,8.0,59,0.00,,,-99.99,10,WeatherLink 6.0.0,2013-04-04 11:30:00,
2013-04-04 07:33:00,27.5,15.0,30.28,SSE,155,3.0,6.0,59,0.00,,,0.00,23,Wunderground v.1.15,2013-04-04 11:33:00,
2013-04-04 07:40:00,27.6,15.1,30.28,South,185,4.0,4.0,59,0.00,,,0.00,26,Wunderground v.1.15,2013-04-04 11:40:00,
2013-04-04 07:46:00,27.6,15.5,30.28,South,178,3.0,5.0,60,0.00,,,0.00,33,Wunderground v.1.15,2013-04-04 11:46:00,
2013-04-04 07:52:00,27.7,15.6,30.28,South,189,3.0,3.0,60,0.00,,,0.00,40,Wunderground v.1.15,2013-04-04 11:52:00,
2013-04-04 07:58:00,28.0,15.5,30.28,South,180,3.0,7.0,59,0.00,,,0.00,47,Wunderground v.1.15,2013-04-04 11:58:00,
2013-04-04 08:00:00,27.7,15.2,30.28,South,180,3.0,9.0,59,0.00,,,-99.99,35,WeatherLink 6.0.0,2013-04-04 12:00:00,
2013-04-04 08:03:00,28.3,15.8,30.28,South,187,3.0,9.0,59,0.00,,,0.00,90,Wunderground v.1.15,2013-04-04 12:03:00,
2013-04-04 08:09:00,28.6,16.1,30.27,South,178,3.0,9.0,59,0.00,,,0.00,141,Wunderground v.1.15,2013-04-04 12:09:00,
2013-04-04 08:15:00,29.0,16.1,30.28,South,183,3.0,7.0,58,0.00,,,0.00,160,Wunderground v.1.15,2013-04-04 12:15:00,
2013-04-04 08:20:00,29.4,16.0,30.28,SW,224,3.0,3.0,57,0.00,,,0.00,176,Wunderground v.1.15,2013-04-04 12:20:00,
2013-04-04 08:25:00,29.8,16.4,30.28,SSW,200,2.0,4.0,57,0.00,,,0.00,207,Wunderground v.1.15,2013-04-04 12:25:00,
2013-04-04 08:30:00,29.1,15.3,30.28,South,180,2.0,8.0,56,0.00,,,-99.99,164,WeatherLink 6.0.0,2013-04-04 12:30:00,
2013-04-04 08:31:00,30.2,16.4,30.28,SSW,201,2.0,3.0,56,0.00,,,0.00,229,Wunderground v.1.15,2013-04-04 12:31:00,
2013-04-04 08:36:00,30.6,16.3,30.28,SSW,199,3.0,5.0,55,0.00,,,0.00,253,Wunderground v.1.15,2013-04-04 12:36:00,
2013-04-04 08:42:00,31.0,16.3,30.27,South,178,4.0,4.0,54,0.00,,,0.00,281,Wunderground v.1.15,2013-04-04 12:42:00,
2013-04-04 08:48:00,31.4,16.2,30.27,SSW,198,4.0,8.0,53,0.00,,,0.00,267,Wunderground v.1.15,2013-04-04 12:48:00,
2013-04-04 08:54:00,31.9,15.8,30.27,SSW,192,5.0,7.0,51,0.00,,,0.00,295,Wunderground v.1.15,2013-04-04 12:54:00,
2013-04-04 09:00:00,32.1,16.0,30.27,SSW,194,5.0,5.0,51,0.00,,,0.00,283,Wunderground v.1.15,2013-04-04 13:00:00,
2013-04-04 09:06:00,32.6,16.0,30.26,South,173,4.0,9.0,50,0.00,,,0.00,366,Wunderground v.1.15,2013-04-04 13:06:00,
2013-04-04 09:11:00,33.4,16.7,30.26,South,190,3.0,5.0,50,0.00,,,0.00,383,Wunderground v.1.15,2013-04-04 13:11:00,
2013-04-04 09:17:00,33.7,16.5,30.25,South,183,4.0,7.0,49,0.00,,,0.00,401,Wunderground v.1.15,2013-04-04 13:17:00,
2013-04-04 09:22:00,33.9,16.3,30.25,SSE,165,5.0,5.0,48,0.00,,,0.00,385,Wunderground v.1.15,2013-04-04 13:22:00,
2013-04-04 09:28:00,34.2,16.0,30.25,SSW,196,5.0,8.0,47,0.00,,,0.00,380,Wunderground v.1.15,2013-04-04 13:28:00,
2013-04-04 09:30:00,33.5,15.4,30.25,South,180,4.0,10.0,47,0.00,,,-99.99,388,WeatherLink 6.0.0,2013-04-04 13:30:00,
2013-04-04 09:33:00,34.4,16.7,30.25,WSW,239,4.0,5.0,48,0.00,,,0.00,376,Wunderground v.1.15,2013-04-04 13:33:00,
2013-04-04 09:40:00,34.6,16.4,30.25,South,184,4.0,4.0,47,0.00,,,0.00,471,Wunderground v.1.15,2013-04-04 13:40:00,
2013-04-04 09:45:00,34.7,16.0,30.24,SSW,194,6.0,9.0,46,0.00,,,0.00,464,Wunderground v.1.15,2013-04-04 13:45:00,
2013-04-04 09:52:00,35.5,16.7,30.23,South,180,5.0,7.0,46,0.00,,,0.00,441,Wunderground v.1.15,2013-04-04 13:52:00,
2013-04-04 09:58:00,36.0,16.7,30.23,South,184,4.0,7.0,45,0.00,,,0.00,373,Wunderground v.1.15,2013-04-04 13:58:00,
2013-04-04 10:00:00,35.1,15.3,30.23,South,180,5.0,11.0,44,0.00,,,-99.99,437,WeatherLink 6.0.0,2013-04-04 14:00:00,
2013-04-04 10:05:00,36.9,16.5,30.23,South,170,3.0,11.0,43,0.00,,,0.00,599,Wunderground v.1.15,2013-04-04 14:05:00,
2013-04-04 10:10:00,37.8,16.7,30.23,SSW,193,3.0,4.0,42,0.00,,,0.00,552,Wunderground v.1.15,2013-04-04 14:10:00,
2013-04-04 10:16:00,38.0,16.9,30.22,SSW,193,3.0,5.0,42,0.00,,,0.00,575,Wunderground v.1.15,2013-04-04 14:16:00,
2013-04-04 10:21:00,38.5,16.8,30.22,SW,227,4.0,4.0,41,0.00,,,0.00,538,Wunderground v.1.15,2013-04-04 14:21:00,
2013-04-04 10:27:00,38.7,16.4,30.22,SSE,150,5.0,8.0,40,0.00,,,0.00,582,Wunderground v.1.15,2013-04-04 14:27:00,
2013-04-04 10:30:00,37.9,15.7,30.22,SSW,202,4.0,10.0,40,0.00,,,-99.99,567,WeatherLink 6.0.0,2013-04-04 14:30:00,
2013-04-04 10:32:00,39.1,17.4,30.22,SSW,206,5.0,5.0,41,0.00,,,0.00,631,Wunderground v.1.15,2013-04-04 14:32:00,
2013-04-04 10:38:00,39.5,16.6,30.21,SSW,195,5.0,6.0,39,0.00,,,0.00,650,Wunderground v.1.15,2013-04-04 14:38:00,
2013-04-04 10:44:00,40.3,17.3,30.21,SSW,192,3.0,5.0,39,0.00,,,0.00,668,Wunderground v.1.15,2013-04-04 14:44:00,
2013-04-04 10:49:00,41.1,16.8,30.20,South,190,3.0,5.0,37,0.00,,,0.00,670,Wunderground v.1.15,2013-04-04 14:49:00,
2013-04-04 10:55:00,41.5,16.5,30.20,SSW,202,4.0,5.0,36,0.00,,,0.00,679,Wunderground v.1.15,2013-04-04 14:55:00,
2013-04-04 11:00:00,42.5,17.4,30.20,SSE,148,3.0,8.0,36,0.00,,,0.00,689,Wunderground v.1.15,2013-04-04 15:00:00,
2013-04-04 11:06:00,42.4,16.6,30.20,SSW,196,4.0,11.0,35,0.00,,,0.00,710,Wunderground v.1.15,2013-04-04 15:06:00,
2013-04-04 11:12:00,42.9,16.4,30.20,South,182,3.0,6.0,34,0.00,,,0.00,724,Wunderground v.1.15,2013-04-04 15:12:00,
2013-04-04 11:18:00,42.8,15.6,30.19,South,188,4.0,7.0,33,0.00,,,0.00,714,Wunderground v.1.15,2013-04-04 15:18:00,
2013-04-04 11:23:00,43.0,16.5,30.19,SSW,192,4.0,6.0,34,0.00,,,0.00,726,Wunderground v.1.15,2013-04-04 15:23:00,
2013-04-04 11:29:00,43.4,16.2,30.19,SSW,194,5.0,8.0,33,0.00,,,0.00,751,Wunderground v.1.15,2013-04-04 15:29:00,
2013-04-04 11:30:00,42.9,15.7,30.19,South,180,4.0,10.0,33,0.00,,,-99.99,717,WeatherLink 6.0.0,2013-04-04 15:30:00,
2013-04-04 11:34:00,43.4,16.9,30.19,SSE,165,5.0,8.0,34,0.00,,,0.00,703,Wunderground v.1.15,2013-04-04 15:34:00,
2013-04-04 11:39:00,44.3,17.0,30.19,South,190,5.0,11.0,33,0.00,,,0.00,756,Wunderground v.1.15,2013-04-04 15:39:00,
2013-04-04 11:45:00,44.1,16.8,30.18,SE,135,5.0,10.0,33,0.00,,,0.00,768,Wunderground v.1.15,2013-04-04 15:45:00,
2013-04-04 11:52:00,44.5,17.1,30.18,SE,140,5.0,12.0,33,0.00,,,0.00,772,Wunderground v.1.15,2013-04-04 15:52:00,
2013-04-04 11:58:00,45.2,17.8,30.17,SE,134,5.0,12.0,33,0.00,,,0.00,809,Wunderground v.1.15,2013-04-04 15:58:00,
2013-04-04 12:00:00,44.3,16.3,30.17,South,180,5.0,13.0,32,0.00,,,-99.99,776,WeatherLink 6.0.0,2013-04-04 16:00:00,
2013-04-04 12:03:00,44.7,16.6,30.17,SSE,154,6.0,12.0,32,0.00,,,0.00,838,Wunderground v.1.15,2013-04-04 16:03:00,
2013-04-04 12:09:00,45.2,16.3,30.17,South,189,6.0,12.0,31,0.00,,,0.00,847,Wunderground v.1.15,2013-04-04 16:09:00,
2013-04-04 12:15:00,45.2,16.3,30.17,South,183,5.0,10.0,31,0.00,,,0.00,729,Wunderground v.1.15,2013-04-04 16:15:00,
2013-04-04 12:20:00,46.1,16.3,30.16,SE,138,5.0,5.0,30,0.00,,,0.00,747,Wunderground v.1.15,2013-04-04 16:20:00,
2013-04-04 12:26:00,46.6,16.0,30.16,SSE,158,5.0,8.0,29,0.00,,,0.00,854,Wunderground v.1.15,2013-04-04 16:26:00,
2013-04-04 12:30:00,45.7,14.4,30.16,South,180,5.0,16.0,28,0.00,,,-99.99,814,WeatherLink 6.0.0,2013-04-04 16:30:00,
2013-04-04 12:32:00,47.0,15.5,30.16,South,180,5.0,7.0,28,0.00,,,0.00,773,Wunderground v.1.15,2013-04-04 16:32:00,
2013-04-04 12:38:00,47.1,15.6,30.15,SSE,152,6.0,7.0,28,0.00,,,0.00,884,Wunderground v.1.15,2013-04-04 16:38:00,
2013-04-04 12:45:00,47.5,16.0,30.15,SSE,150,6.0,7.0,28,0.00,,,0.00,893,Wunderground v.1.15,2013-04-04 16:45:00,
2013-04-04 12:50:00,47.2,14.9,30.14,South,186,6.0,7.0,27,0.00,,,0.00,856,Wunderground v.1.15,2013-04-04 16:50:00,
2013-04-04 12:56:00,47.3,15.0,30.14,SSW,198,7.0,10.0,27,0.00,,,0.00,844,Wunderground v.1.15,2013-04-04 16:56:00,
2013-04-04 13:00:00,47.2,14.0,30.13,South,180,6.0,14.0,26,0.00,,,-99.99,853,WeatherLink 6.0.0,2013-04-04 17:00:00,
2013-04-04 13:01:00,47.2,14.9,30.13,SSE,165,6.0,13.0,27,0.00,,,0.00,882,Wunderground v.1.15,2013-04-04 17:01:00,
2013-04-04 13:07:00,47.4,15.0,30.13,South,180,6.0,14.0,27,0.00,,,0.00,893,Wunderground v.1.15,2013-04-04 17:07:00,
2013-04-04 13:12:00,47.6,13.5,30.12,SSW,199,7.0,8.0,25,0.00,,,0.00,891,Wunderground v.1.15,2013-04-04 17:12:00,
2013-04-04 13:18:00,48.0,14.7,30.12,SSW,196,6.0,9.0,26,0.00,,,0.00,882,Wunderground v.1.15,2013-04-04 17:18:00,
2013-04-04 13:23:00,48.4,15.0,30.12,SSW,205,6.0,10.0,26,0.00,,,0.00,893,Wunderground v.1.15,2013-04-04 17:23:00,
2013-04-04 13:29:00,49.7,15.2,30.11,SSE,147,5.0,10.0,25,0.00,,,0.00,895,Wunderground v.1.15,2013-04-04 17:29:00,
2013-04-04 13:30:00,48.1,13.9,30.11,South,180,6.0,14.0,25,0.00,,,-99.99,887,WeatherLink 6.0.0,2013-04-04 17:30:00,
2013-04-04 13:34:00,50.3,15.8,30.11,SSW,205,5.0,7.0,25,0.00,,,0.00,893,Wunderground v.1.15,2013-04-04 17:34:00,
2013-04-04 13:40:00,50.2,14.7,30.10,South,175,5.0,5.0,24,0.00,,,0.00,888,Wunderground v.1.15,2013-04-04 17:40:00,
2013-04-04 13:45:00,50.2,15.7,30.10,SW,219,5.0,8.0,25,0.00,,,0.00,879,Wunderground v.1.15,2013-04-04 17:45:00,
2013-04-04 13:52:00,50.9,17.2,30.10,South,182,5.0,6.0,26,0.00,,,0.00,877,Wunderground v.1.15,2013-04-04 17:52:00,
2013-04-04 13:58:00,51.1,16.4,30.09,SSE,165,6.0,9.0,25,0.00,,,0.00,879,Wunderground v.1.15,2013-04-04 17:58:00,
2013-04-04 14:00:00,50.5,16.8,30.09,South,180,5.0,13.0,26,0.00,,,-99.99,882,WeatherLink 6.0.0,2013-04-04 18:00:00,
2013-04-04 14:03:00,51.3,14.7,30.09,SE,134,6.0,14.0,23,0.00,,,0.00,872,Wunderground v.1.15,2013-04-04 18:03:00,
2013-04-04 14:10:00,51.3,14.7,30.09,SSW,206,6.0,6.0,23,0.00,,,0.00,863,Wunderground v.1.15,2013-04-04 18:10:00,
2013-04-04 14:16:00,51.5,14.9,30.08,South,189,6.0,8.0,23,0.00,,,0.00,860,Wunderground v.1.15,2013-04-04 18:16:00,
2013-04-04 14:22:00,51.4,14.8,30.08,SSW,213,5.0,7.0,23,0.00,,,0.00,863,Wunderground v.1.15,2013-04-04 18:22:00,
2013-04-04 14:28:00,52.3,14.5,30.07,SW,236,4.0,7.0,22,0.00,,,0.00,851,Wunderground v.1.15,2013-04-04 18:28:00,
2013-04-04 14:30:00,51.5,15.8,30.07,South,180,5.0,16.0,24,0.00,,,-99.99,858,WeatherLink 6.0.0,2013-04-04 18:30:00,
2013-04-04 14:34:00,52.8,14.9,30.07,SSW,212,5.0,8.0,22,0.00,,,0.00,728,Wunderground v.1.15,2013-04-04 18:34:00,
2013-04-04 14:39:00,53.2,14.2,30.07,WSW,248,4.0,8.0,21,0.00,,,0.00,844,Wunderground v.1.15,2013-04-04 18:39:00,
2013-04-04 14:45:00,52.8,13.9,30.07,South,186,6.0,11.0,21,0.00,,,0.00,830,Wunderground v.1.15,2013-04-04 18:45:00,
2013-04-04 14:51:00,53.1,16.2,30.06,SSW,198,6.0,6.0,23,0.00,,,0.00,819,Wunderground v.1.15,2013-04-04 18:51:00,
2013-04-04 14:57:00,53.7,13.5,30.06,SW,229,5.0,8.0,20,0.00,,,0.00,810,Wunderground v.1.15,2013-04-04 18:57:00,
2013-04-04 15:00:00,53.1,13.0,30.06,SW,225,5.0,19.0,20,0.00,,,-99.99,815,WeatherLink 6.0.0,2013-04-04 19:00:00,
2013-04-04 15:02:00,53.9,13.7,30.06,WSW,237,5.0,13.0,20,0.00,,,0.00,802,Wunderground v.1.15,2013-04-04 19:02:00,
2013-04-04 15:07:00,54.2,12.8,30.05,SW,223,6.0,13.0,19,0.00,,,0.00,791,Wunderground v.1.15,2013-04-04 19:07:00,
2013-04-04 15:13:00,54.4,16.3,30.05,SW,236,6.0,6.0,22,0.00,,,0.00,786,Wunderground v.1.15,2013-04-04 19:13:00,
2013-04-04 15:18:00,54.7,14.4,30.05,SW,229,5.0,9.0,20,0.00,,,0.00,761,Wunderground v.1.15,2013-04-04 19:18:00,
2013-04-04 15:24:00,54.4,14.1,30.04,SSE,161,6.0,7.0,20,0.00,,,0.00,740,Wunderground v.1.15,2013-04-04 19:24:00,
2013-04-04 15:29:00,54.7,16.5,30.04,SSW,194,6.0,10.0,22,0.00,,,0.00,751,Wunderground v.1.15,2013-04-04 19:29:00,
2013-04-04 15:30:00,54.4,15.2,30.04,SSW,202,6.0,14.0,21,0.00,,,-99.99,771,WeatherLink 6.0.0,2013-04-04 19:30:00,
2013-04-04 15:35:00,54.9,15.6,30.04,WSW,247,5.0,8.0,21,0.00,,,0.00,737,Wunderground v.1.15,2013-04-04 19:35:00,
2013-04-04 15:40:00,55.6,16.2,30.04,SSW,199,5.0,5.0,21,0.00,,,0.00,728,Wunderground v.1.15,2013-04-04 19:40:00,
2013-04-04 15:47:00,55.7,16.3,30.03,SW,234,4.0,5.0,21,0.00,,,0.00,710,Wunderground v.1.15,2013-04-04 19:47:00,
2013-04-04 15:53:00,55.7,16.3,30.03,South,182,5.0,6.0,21,0.00,,,0.00,701,Wunderground v.1.15,2013-04-04 19:53:00,
2013-04-04 15:58:00,55.4,14.9,30.02,South,191,5.0,7.0,20,0.00,,,0.00,679,Wunderground v.1.15,2013-04-04 19:58:00,
2013-04-04 16:00:00,55.4,14.9,30.02,SW,225,5.0,11.0,20,0.00,,,-99.99,711,WeatherLink 6.0.0,2013-04-04 20:00:00,
2013-04-04 16:05:00,55.3,14.8,30.02,WSW,255,5.0,19.0,20,0.00,,,0.00,668,Wunderground v.1.15,2013-04-04 20:05:00,
2013-04-04 16:10:00,55.5,15.0,30.02,SSE,163,5.0,7.0,20,0.00,,,0.00,657,Wunderground v.1.15,2013-04-04 20:10:00,
2013-04-04 16:16:00,56.2,15.6,30.01,SSW,206,5.0,7.0,20,0.00,,,0.00,642,Wunderground v.1.15,2013-04-04 20:16:00,
2013-04-04 16:21:00,56.2,14.4,30.01,WSW,257,5.0,5.0,19,0.00,,,0.00,626,Wunderground v.1.15,2013-04-04 20:21:00,
2013-04-04 16:27:00,55.8,15.3,30.01,South,185,5.0,8.0,20,0.00,,,0.00,613,Wunderground v.1.15,2013-04-04 20:27:00,
2013-04-04 16:30:00,55.8,14.1,30.01,SSW,202,5.0,14.0,19,0.00,,,-99.99,639,WeatherLink 6.0.0,2013-04-04 20:30:00,
2013-04-04 16:32:00,55.9,12.9,30.01,WSW,252,6.0,6.0,18,0.00,,,0.00,596,Wunderground v.1.15,2013-04-04 20:32:00,
2013-04-04 16:38:00,56.1,15.5,30.00,SSW,199,5.0,8.0,20,0.00,,,0.00,580,Wunderground v.1.15,2013-04-04 20:38:00,
2013-04-04 16:43:00,55.9,15.3,30.00,SSE,167,5.0,7.0,20,0.00,,,0.00,563,Wunderground v.1.15,2013-04-04 20:43:00,
2013-04-04 16:49:00,55.8,15.3,30.00,SSW,192,6.0,7.0,20,0.00,,,0.00,548,Wunderground v.1.15,2013-04-04 20:49:00,
2013-04-04 16:55:00,55.6,13.9,29.99,SSW,213,6.0,7.0,19,0.00,,,0.00,529,Wunderground v.1.15,2013-04-04 20:55:00,
2013-04-04 17:00:00,55.5,13.8,29.99,SSW,198,6.0,6.0,19,0.00,,,0.00,512,Wunderground v.1.15,2013-04-04 21:00:00,
2013-04-04 17:05:00,55.4,14.9,29.99,SW,219,6.0,11.0,20,0.00,,,0.00,496,Wunderground v.1.15,2013-04-04 21:05:00,
2013-04-04 17:12:00,55.3,13.7,29.99,SW,231,6.0,9.0,19,0.00,,,0.00,476,Wunderground v.1.15,2013-04-04 21:12:00,
2013-04-04 17:18:00,55.8,15.3,29.98,SSW,192,5.0,9.0,20,0.00,,,0.00,461,Wunderground v.1.15,2013-04-04 21:18:00,
2013-04-04 17:25:00,55.3,14.8,29.98,SSW,213,5.0,9.0,20,0.00,,,0.00,436,Wunderground v.1.15,2013-04-04 21:25:00,
2013-04-04 17:30:00,55.7,16.3,29.98,SE,132,5.0,13.0,21,0.00,,,0.00,418,Wunderground v.1.15,2013-04-04 21:30:00,
2013-04-04 17:36:00,55.5,16.1,29.98,SSE,165,5.0,13.0,21,0.00,,,0.00,399,Wunderground v.1.15,2013-04-04 21:36:00,
2013-04-04 17:42:00,55.5,15.0,29.98,SW,233,6.0,7.0,20,0.00,,,0.00,381,Wunderground v.1.15,2013-04-04 21:42:00,
2013-04-04 17:47:00,55.7,15.2,29.97,SSW,196,6.0,12.0,20,0.00,,,0.00,366,Wunderground v.1.15,2013-04-04 21:47:00,
2013-04-04 17:52:00,55.8,15.3,29.97,South,182,6.0,11.0,20,0.00,,,0.00,348,Wunderground v.1.15,2013-04-04 21:52:00,
2013-04-04 17:57:00,56.1,15.5,29.97,WSW,240,5.0,11.0,20,0.00,,,0.00,329,Wunderground v.1.15,2013-04-04 21:57:00,
2013-04-04 18:00:00,55.7,15.2,29.97,SW,225,6.0,21.0,20,0.00,,,-99.99,369,WeatherLink 6.0.0,2013-04-04 22:00:00,
2013-04-04 18:03:00,56.2,15.6,29.97,WSW,243,4.0,14.0,20,0.00,,,0.00,315,Wunderground v.1.15,2013-04-04 22:03:00,
2013-04-04 18:09:00,56.1,15.5,29.97,SW,229,4.0,14.0,20,0.00,,,0.00,295,Wunderground v.1.15,2013-04-04 22:09:00,
2013-04-04 18:14:00,56.2,16.7,29.97,SSW,202,4.0,9.0,21,0.00,,,0.00,225,Wunderground v.1.15,2013-04-04 22:14:00,
2013-04-04 18:20:00,55.9,15.3,29.97,South,186,4.0,4.0,20,0.00,,,0.00,163,Wunderground v.1.15,2013-04-04 22:20:00,
2013-04-04 18:26:00,55.7,15.2,29.97,SW,219,4.0,7.0,20,0.00,,,0.00,192,Wunderground v.1.15,2013-04-04 22:26:00,
2013-04-04 18:30:00,55.9,15.3,29.97,SSW,202,4.0,14.0,20,0.00,,,-99.99,229,WeatherLink 6.0.0,2013-04-04 22:30:00,
2013-04-04 18:31:00,55.2,15.9,29.97,SSW,204,5.0,5.0,21,0.00,,,0.00,156,Wunderground v.1.15,2013-04-04 22:31:00,
2013-04-04 18:37:00,55.1,15.8,29.97,SW,227,4.0,5.0,21,0.00,,,0.00,148,Wunderground v.1.15,2013-04-04 22:37:00,
2013-04-04 18:42:00,54.9,15.6,29.97,SW,218,5.0,7.0,21,0.00,,,0.00,123,Wunderground v.1.15,2013-04-04 22:42:00,
2013-04-04 18:48:00,54.9,15.6,29.97,WSW,238,5.0,7.0,21,0.00,,,0.00,120,Wunderground v.1.15,2013-04-04 22:48:00,
2013-04-04 18:53:00,54.8,15.6,29.97,SSW,201,4.0,6.0,21,0.00,,,0.00,93,Wunderground v.1.15,2013-04-04 22:53:00,
2013-04-04 19:00:00,54.4,15.2,29.97,SSW,205,5.0,5.0,21,0.00,,,0.00,54,Wunderground v.1.15,2013-04-04 23:00:00,
2013-04-04 19:06:00,54.0,14.9,29.97,WSW,257,6.0,21.0,21,0.00,,,0.00,42,Wunderground v.1.15,2013-04-04 23:06:00,
2013-04-04 19:11:00,53.8,14.7,29.97,South,187,5.0,7.0,21,0.00,,,0.00,37,Wunderground v.1.15,2013-04-04 23:11:00,
2013-04-04 19:17:00,53.6,15.6,29.97,SSW,205,5.0,7.0,22,0.00,,,0.00,37,Wunderground v.1.15,2013-04-04 23:17:00,
2013-04-04 19:22:00,53.5,15.5,29.97,SW,227,5.0,5.0,22,0.00,,,0.00,35,Wunderground v.1.15,2013-04-04 23:22:00,
2013-04-04 19:28:00,53.4,15.4,29.97,SW,224,5.0,8.0,22,0.00,,,0.00,32,Wunderground v.1.15,2013-04-04 23:28:00,
2013-04-04 19:30:00,53.7,15.7,29.97,SSW,202,5.0,14.0,22,0.00,,,-99.99,37,WeatherLink 6.0.0,2013-04-04 23:30:00,
2013-04-04 19:33:00,53.2,15.3,29.97,SSW,193,5.0,5.0,22,0.00,,,0.00,25,Wunderground v.1.15,2013-04-04 23:33:00,
2013-04-04 19:39:00,52.8,16.0,29.97,SSW,199,4.0,5.0,23,0.00,,,0.00,21,Wunderground v.1.15,2013-04-04 23:39:00,
2013-04-04 19:44:00,52.6,15.8,29.97,SSW,192,3.0,3.0,23,0.00,,,0.00,18,Wunderground v.1.15,2013-04-04 23:44:00,
2013-04-04 19:50:00,52.1,16.4,29.96,SW,234,2.0,2.0,24,0.00,,,0.00,12,Wunderground v.1.15,2013-04-04 23:50:00,
2013-04-04 19:55:00,51.8,16.1,29.96,SW,234,2.0,2.0,24,0.00,,,0.00,11,Wunderground v.1.15,2013-04-04 23:55:00,
2013-04-04 20:00:00,52.4,16.6,29.96,SW,225,2.0,9.0,24,0.00,,,-99.99,16,WeatherLink 6.0.0,2013-04-05 00:00:00,
2013-04-04 20:01:00,51.5,16.8,29.96,SSW,207,2.0,12.0,25,0.00,,,0.00,7,Wunderground v.1.15,2013-04-05 00:01:00,
2013-04-04 20:06:00,51.0,16.4,29.96,SSW,202,2.0,12.0,25,0.00,,,0.00,0,Wunderground v.1.15,2013-04-05 00:06:00,
2013-04-04 20:12:00,50.6,16.9,29.96,SW,222,2.0,2.0,26,0.00,,,0.00,0,Wunderground v.1.15,2013-04-05 00:12:00,
2013-04-04 20:17:00,50.4,17.6,29.96,SW,225,1.0,2.0,27,0.00,,,0.00,0,Wunderground v.1.15,2013-04-05 00:17:00,
2013-04-04 20:22:00,49.8,17.1,29.96,SW,233,1.0,2.0,27,0.00,,,0.00,0,Wunderground v.1.15,2013-04-05 00:22:00,
2013-04-04 20:28:00,49.4,17.6,29.95,SW,215,1.0,3.0,28,0.00,,,0.00,0,Wunderground v.1.15,2013-04-05 00:28:00,
2013-04-04 20:30:00,50.4,18.5,29.96,SW,225,1.0,4.0,28,0.00,,,-99.99,1,WeatherLink 6.0.0,2013-04-05 00:30:00,
2013-04-04 20:34:00,49.1,17.3,29.96,SW,235,1.0,2.0,28,0.00,,,0.00,0,Wunderground v.1.15,2013-04-05 00:34:00,
2013-04-04 20:39:00,48.9,18.0,29.96,SW,235,1.0,2.0,29,0.00,,,0.00,0,Wunderground v.1.15,2013-04-05 00:39:00,
2013-04-04 20:44:00,48.7,17.8,29.96,SW,235,1.0,2.0,29,0.00,,,0.00,0,Wunderground v.1.15,2013-04-05 00:44:00,
2013-04-04 20:50:00,48.3,17.5,29.96,SW,235,0.0,0.0,29,0.00,,,0.00,0,Wunderground v.1.15,2013-04-05 00:50:00,
2013-04-04 20:55:00,47.9,17.9,29.96,WSW,239,1.0,2.0,30,0.00,,,0.00,0,Wunderground v.1.15,2013-04-05 00:55:00,
2013-04-04 21:00:00,48.5,18.4,29.96,SW,225,1.0,5.0,30,0.00,,,-99.99,0,WeatherLink 6.0.0,2013-04-05 01:00:00,
2013-04-04 21:02:00,47.6,17.6,29.96,WSW,239,1.0,9.0,30,0.00,,,0.00,0,Wunderground v.1.15,2013-04-05 01:02:00,
2013-04-04 21:07:00,47.4,18.2,29.96,SW,229,1.0,9.0,31,0.00,,,0.00,0,Wunderground v.1.15,2013-04-05 01:07:00,
2013-04-04 21:13:00,47.1,18.0,29.96,SW,229,1.0,1.0,31,0.00,,,0.00,0,Wunderground v.1.15,2013-04-05 01:13:00,
2013-04-04 21:18:00,46.8,17.7,29.96,SW,229,0.0,3.0,31,0.00,,,0.00,0,Wunderground v.1.15,2013-04-05 01:18:00,
2013-04-04 21:24:00,46.4,18.1,29.97,SW,229,0.0,2.0,32,0.00,,,0.00,0,Wunderground v.1.15,2013-04-05 01:24:00,
2013-04-04 21:29:00,46.1,17.8,29.97,SW,229,0.0,2.0,32,0.00,,,0.00,0,Wunderground v.1.15,2013-04-05 01:29:00,
2013-04-04 21:30:00,46.9,18.5,29.97,SW,225,0.0,3.0,32,0.00,,,-99.99,0,WeatherLink 6.0.0,2013-04-05 01:30:00,
2013-04-04 21:35:00,45.6,18.1,29.97,SW,229,0.0,0.0,33,0.00,,,0.00,0,Wunderground v.1.15,2013-04-05 01:35:00,
2013-04-04 21:42:00,45.2,17.8,29.97,SW,229,0.0,1.0,33,0.00,,,0.00,0,Wunderground v.1.15,2013-04-05 01:42:00,
2013-04-04 21:49:00,45.0,17.6,29.97,SW,229,0.0,1.0,33,0.00,,,0.00,0,Wunderground v.1.15,2013-04-05 01:49:00,
2013-04-04 21:55:00,44.9,18.2,29.97,SW,228,0.0,2.0,34,0.00,,,0.00,0,Wunderground v.1.15,2013-04-05 01:55:00,
2013-04-04 22:00:00,45.2,18.5,29.97,SW,225,0.0,5.0,34,0.00,,,-99.99,0,WeatherLink 6.0.0,2013-04-05 02:00:00,
2013-04-04 22:01:00,44.7,18.0,29.97,WSW,250,1.0,2.0,34,0.00,,,0.00,0,Wunderground v.1.15,2013-04-05 02:01:00,
2013-04-04 22:07:00,44.5,18.5,29.97,SW,229,1.0,5.0,35,0.00,,,0.00,0,Wunderground v.1.15,2013-04-05 02:07:00,
2013-04-04 22:12:00,44.3,18.3,29.97,SW,231,1.0,1.0,35,0.00,,,0.00,0,Wunderground v.1.15,2013-04-05 02:12:00,
2013-04-04 22:17:00,44.1,18.8,29.97,SW,231,0.0,2.0,36,0.00,,,0.00,0,Wunderground v.1.15,2013-04-05 02:17:00,
2013-04-04 22:23:00,43.8,18.5,29.97,SW,236,1.0,1.0,36,0.00,,,0.00,0,Wunderground v.1.15,2013-04-05 02:23:00,
2013-04-04 22:29:00,43.7,19.1,29.97,SW,236,1.0,2.0,37,0.00,,,0.00,0,Wunderground v.1.15,2013-04-05 02:29:00,
2013-04-04 22:30:00,44.1,19.5,29.97,SW,225,1.0,5.0,37,0.00,,,-99.99,0,WeatherLink 6.0.0,2013-04-05 02:30:00,
2013-04-04 22:34:00,43.6,19.0,29.97,West,271,1.0,3.0,37,0.00,,,0.00,0,Wunderground v.1.15,2013-04-05 02:34:00,
2013-04-04 22:40:00,43.4,18.8,29.97,West,270,2.0,2.0,37,0.00,,,0.00,0,Wunderground v.1.15,2013-04-05 02:40:00,
2013-04-04 22:45:00,43.2,19.3,29.97,West,261,2.0,3.0,38,0.00,,,0.00,0,Wunderground v.1.15,2013-04-05 02:45:00,
2013-04-04 22:52:00,43.6,18.4,29.97,West,263,3.0,3.0,36,0.00,,,0.00,0,Wunderground v.1.15,2013-04-05 02:52:00,
2013-04-04 22:58:00,44.0,18.1,29.97,West,265,3.0,4.0,35,0.00,,,0.00,0,Wunderground v.1.15,2013-04-05 02:58:00,
2013-04-04 23:00:00,43.6,18.4,29.97,West,270,2.0,5.0,36,0.00,,,-99.99,0,WeatherLink 6.0.0,2013-04-05 03:00:00,
2013-04-04 23:03:00,44.1,18.8,29.97,West,265,2.0,5.0,36,0.00,,,0.00,0,Wunderground v.1.15,2013-04-05 03:03:00,
2013-04-04 23:09:00,44.1,19.5,29.96,West,265,2.0,5.0,37,0.00,,,0.00,0,Wunderground v.1.15,2013-04-05 03:09:00,
2013-04-04 23:15:00,43.7,19.1,29.96,West,265,1.0,1.0,37,0.00,,,0.00,0,Wunderground v.1.15,2013-04-05 03:15:00,
2013-04-04 23:20:00,43.5,18.9,29.96,West,265,1.0,1.0,37,0.00,,,0.00,0,Wunderground v.1.15,2013-04-05 03:20:00,
2013-04-04 23:26:00,43.5,18.9,29.96,West,265,1.0,2.0,37,0.00,,,0.00,0,Wunderground v.1.15,2013-04-05 03:26:00,
2013-04-04 23:30:00,43.8,19.2,29.96,West,270,1.0,4.0,37,0.00,,,-99.99,0,WeatherLink 6.0.0,2013-04-05 03:30:00,
2013-04-04 23:32:00,43.6,19.0,29.96,West,265,1.0,2.0,37,0.00,,,0.00,0,Wunderground v.1.15,2013-04-05 03:32:00,
2013-04-04 23:38:00,43.7,18.5,29.96,West,265,2.0,3.0,36,0.00,,,0.00,0,Wunderground v.1.15,2013-04-05 03:38:00,
2013-04-04 23:45:00,43.8,19.2,29.95,West,265,2.0,3.0,37,0.00,,,0.00,0,Wunderground v.1.15,2013-04-05 03:45:00,
2013-04-04 23:50:00,43.8,18.5,29.95,West,261,2.0,2.0,36,0.00,,,0.00,0,Wunderground v.1.15,2013-04-05 03:50:00,
2013-04-04 23:55:00,43.8,19.2,29.95,West,261,1.0,2.0,37,0.00,,,0.00,0,Wunderground v.1.15,2013-04-05 03:55:00,